Location: Krasnoyarskiy Pitomnik
(51.1333°N, 71.6167°E)
Time: 10:29:08
(UTC+00:00)

Cosmos 1602 Rocket - Pass Details

Date: 22 October 2021
Orbit: 603 x 633 km, 82.5° (Epoch: 06 December)

Event Time Altitude Azimuth Distance (km) Brightness Sun altitude
Rises 13:55:24 0° 349° (N) 2,896 7.2 -17.7°
Reaches altitude 10° 13:57:38 10° 350° (N) 1,982 6.3 -18.1°
Maximum altitude 14:02:02 87° 82° (E) 617 3.4 -18.8°
Drops below altitude 10° 14:06:21 10° 170° (S) 1,951 5.9 -19.4°
Enters shadow 14:07:35 - 170° (S) 2,450 6.5 -19.6°
